TimeMDT,TemperatureF,Dew PointF,Humidity,Sea Level PressureIn,VisibilityMPH,Wind Direction,Wind SpeedMPH,Gust SpeedMPH,PrecipitationIn,Events,Conditions,WindDirDegrees,DateUTC
12:53 AM,73.0,53.1,49,29.84,10.0,East,9.2,-,N/A,,Clear,100,2013-09-03 06:53:00
1:53 AM,73.0,52.0,48,29.84,10.0,East,6.9,-,N/A,,Clear,80,2013-09-03 07:53:00
2:53 AM,72.0,52.0,49,29.84,10.0,ENE,6.9,-,N/A,,Clear,60,2013-09-03 08:53:00
3:53 AM,70.0,50.0,49,29.83,10.0,East,9.2,-,N/A,,Clear,80,2013-09-03 09:53:00
4:53 AM,70.0,51.1,51,29.84,10.0,SE,5.8,-,N/A,,Clear,130,2013-09-03 10:53:00
5:53 AM,68.0,51.1,55,29.85,10.0,ENE,9.2,-,N/A,,Clear,70,2013-09-03 11:53:00
6:53 AM,66.0,52.0,60,29.88,10.0,Calm,Calm,-,N/A,,Clear,0,2013-09-03 12:53:00
7:53 AM,68.0,51.1,55,29.88,10.0,ENE,8.1,-,N/A,,Clear,70,2013-09-03 13:53:00
8:53 AM,78.1,53.1,42,29.88,10.0,East,5.8,-,N/A,,Clear,100,2013-09-03 14:53:00
9:53 AM,77.0,55.0,47,29.91,10.0,Calm,Calm,-,N/A,,Clear,0,2013-09-03 15:53:00
10:53 AM,82.9,54.0,37,29.90,10.0,Variable,3.5,-,N/A,,Clear,0,2013-09-03 16:53:00
11:53 AM,89.1,54.0,30,29.90,10.0,Variable,5.8,-,N/A,,Clear,0,2013-09-03 17:53:00
12:53 PM,91.9,53.1,27,29.90,10.0,Variable,5.8,-,N/A,,Clear,0,2013-09-03 18:53:00
1:53 PM,93.9,51.1,23,29.88,10.0,Variable,4.6,-,N/A,,Clear,0,2013-09-03 19:53:00
2:53 PM,96.1,48.9,20,29.88,10.0,SE,8.1,-,N/A,,Clear,130,2013-09-03 20:53:00
3:53 PM,97.0,50.0,20,29.87,10.0,South,8.1,-,N/A,,Clear,170,2013-09-03 21:53:00
4:53 PM,95.0,48.0,20,29.88,10.0,South,6.9,-,N/A,,Clear,170,2013-09-03 22:53:00
5:53 PM,95.0,50.0,22,29.88,10.0,ESE,3.5,-,N/A,,Clear,120,2013-09-03 23:53:00
6:53 PM,93.0,51.1,24,29.88,10.0,ESE,6.9,-,N/A,,Partly Cloudy,110,2013-09-04 00:53:00
7:53 PM,84.9,53.1,33,29.89,10.0,East,9.2,-,N/A,,Clear,90,2013-09-04 01:53:00
8:53 PM,82.0,52.0,35,29.92,10.0,East,19.6,29.9,N/A,,Clear,80,2013-09-04 02:53:00
9:53 PM,78.1,48.9,36,29.95,10.0,East,19.6,29.9,N/A,,Clear,80,2013-09-04 03:53:00
10:53 PM,75.9,50.0,40,29.96,10.0,East,19.6,-,N/A,,Clear,80,2013-09-04 04:53:00
11:53 PM,73.9,53.1,48,29.96,10.0,East,17.3,26.5,N/A,,Clear,90,2013-09-04 05:53:00